Boothville, LA

8:28 PM CST on February 24, 2018 (GMT -0600)
Boothville

Weather History for KBVE - September, 2013

Change the Weather History Date:

Tuesday, September 3, 2013

  Actual Average (KAXO) Record (KAXO)
Temperature  
Mean Temperature 82 °F -  
Max Temperature 88 °F 82 °F 91 °F (2016)
Min Temperature 79 °F 79 °F 78 °F (1998)
Cooling Degree Days 18    
Growing Degree Days 32 (Base 50)    
Moisture  
Dew Point 75 °F    
Average Humidity 77    
Maximum Humidity 88    
Minimum Humidity 65    
Precipitation  
Precipitation 0.00 in - - ()
Sea Level Pressure  
Sea Level Pressure 29.97 in    
Wind  
Wind Speed 5 mph (SSW)    
Max Wind Speed 10 mph    
Max Gust Speed 22 mph    
Visibility 10 miles    
Events      
Averages and records for this station are not official NWS values.
T = Trace of Precipitation, MM = Missing Value Source: NWS Daily Summary

Daily Weather History Graph

Daily Weather History Graph

Search for Another Location

Airport or City:

Trip Planner

Search our weather history database for the weather conditions in past years. The results will help you decide how hot, cold, wet, or windy it might be!

Date:

Astronomy

Sep. 03, 2013 Rise Set
Actual Time 6:36 AM CDT 7:16 PM CDT
Civil Twilight 6:12 AM CDT 7:40 PM CDT
Nautical Twilight 5:43 AM CDT 8:09 PM CDT
Astronomical Twilight 5:14 AM CDT 8:38 PM CDT
Moon 4:54 AM CDT (9/3) 6:02 PM CDT (9/3)
Length of Visible Light 13h 28m
Length of Day
12h 40m
Waning Crescent, 3% of the Moon is Illuminated
Sep 3
Waning Crescent
Sep 5
New
Sep 12
First Quarter
Sep 19
Full
Sep 26
Last Quarter

Hourly Weather History & Observations

Time (CDT) Temp. Heat Index Dew Point Humidity Pressure Visibility Wind Dir Wind Speed Gust Speed Precip Events Conditions
12:51 AM 82.9 °F 90.8 °F 75.9 °F 79% 29.94 in 10.0 mi WSW 5.8 mph - N/A   Clear
1:51 AM 82.9 °F 90.2 °F 75.0 °F 77% 29.94 in 10.0 mi WSW 4.6 mph - N/A   Partly Cloudy
2:51 AM 82.0 °F 89.4 °F 75.9 °F 82% 29.94 in 10.0 mi West 5.8 mph - N/A   Partly Cloudy
3:47 AM 82.4 °F 89.5 °F 75.2 °F 79% 29.94 in 10.0 mi WSW 6.9 mph - N/A   Mostly Cloudy
3:51 AM 82.9 °F 90.8 °F 75.9 °F 79% 29.94 in 10.0 mi West 5.8 mph - N/A   Mostly Cloudy
4:06 AM 82.4 °F 89.5 °F 75.2 °F 79% 29.93 in 10.0 mi West 5.8 mph - N/A   Overcast
4:51 AM 81.0 °F 86.2 °F 73.9 °F 79% 29.94 in 10.0 mi Calm Calm - N/A   Scattered Clouds
5:51 AM 81.0 °F 86.7 °F 75.0 °F 82% 29.95 in 10.0 mi Calm Calm - N/A   Partly Cloudy
6:51 AM 79.0 °F - 75.0 °F 88% 29.97 in 10.0 mi SSW 5.8 mph - N/A   Partly Cloudy
7:34 AM 80.6 °F 84.6 °F 71.6 °F 74% 29.98 in 10.0 mi Variable 6.9 mph 21.9 mph N/A   Mostly Cloudy
7:43 AM 80.6 °F 84.6 °F 71.6 °F 74% 29.98 in 10.0 mi SW 3.5 mph - N/A   Mostly Cloudy
7:51 AM 80.1 °F 84.2 °F 73.0 °F 79% 29.98 in 10.0 mi Calm Calm - N/A   Scattered Clouds
8:51 AM 82.0 °F 88.6 °F 75.0 °F 79% 29.99 in 10.0 mi West 3.5 mph - N/A   Partly Cloudy
9:51 AM 84.0 °F 93.7 °F 77.0 °F 79% 30.01 in 10.0 mi WNW 6.9 mph - N/A   Mostly Cloudy
10:00 AM 82.4 °F 90.9 °F 77.0 °F 84% 30.01 in 10.0 mi Calm Calm - N/A   Mostly Cloudy
10:51 AM 82.0 °F 89.4 °F 75.9 °F 82% 30.02 in 10.0 mi East 9.2 mph - N/A   Mostly Cloudy
11:05 AM 80.6 °F 86.2 °F 75.2 °F 84% 30.02 in 10.0 mi SSE 5.8 mph - N/A   Mostly Cloudy
11:13 AM 80.6 °F 86.2 °F 75.2 °F 84% 30.02 in 10.0 mi South 10.4 mph - N/A   Mostly Cloudy
11:51 AM 80.1 °F 83.8 °F 72.0 °F 76% 30.02 in 10.0 mi SSW 3.5 mph - N/A   Clear
12:51 PM 82.9 °F 90.2 °F 75.0 °F 77% 29.99 in 10.0 mi WNW 4.6 mph - N/A   Clear
1:51 PM 86.0 °F 95.1 °F 75.0 °F 70% 29.97 in 10.0 mi SSW 5.8 mph - N/A   Partly Cloudy
2:51 PM 86.0 °F 93.0 °F 73.0 °F 65% 29.93 in 10.0 mi SSW 5.8 mph - N/A   Clear
3:51 PM 86.0 °F 95.1 °F 75.0 °F 70% 29.91 in 10.0 mi SSW 3.5 mph - N/A   Clear
4:51 PM 86.0 °F 93.0 °F 73.0 °F 65% 29.92 in 10.0 mi SSW 6.9 mph - N/A   Clear
5:51 PM 86.0 °F 93.8 °F 73.9 °F 67% 29.94 in 10.0 mi South 4.6 mph - N/A   Clear
6:51 PM 84.9 °F 92.1 °F 73.9 °F 69% 29.96 in 10.0 mi South 4.6 mph - N/A   Clear
7:51 PM 82.9 °F 90.2 °F 75.0 °F 77% 29.96 in 10.0 mi SE 4.6 mph - N/A   Clear
8:51 PM 82.0 °F 88.6 °F 75.0 °F 79% 29.97 in 10.0 mi SE 4.6 mph - N/A   Clear
9:51 PM 82.0 °F 88.6 °F 75.0 °F 79% 29.99 in 10.0 mi SSW 4.6 mph - N/A   Clear
10:51 PM 82.0 °F 87.9 °F 73.9 °F 76% 29.97 in 10.0 mi South 5.8 mph - N/A   Clear
11:51 PM 82.0 °F 87.9 °F 73.9 °F 76% 29.96 in 10.0 mi South 5.8 mph - N/A   Clear